Tracking 19644 objects as of 26-Apr-2019
HD Live streaming from Space Station
objects crossing your sky now

HAIYANG 2B

Track HAIYANG 2B now!
10-day predictions


NORAD ID: 43655
Int'l Code: 2018-081A
Perigee: 972.8 km
Apogee: 974.2 km
Inclination: 99.4 °
Period: 104.4 minutes
Semi major axis: 7344 km
RCS: Unknown
Launch date: October 24, 2018
Source: People's Republic of China (PRC)
Launch site: Taiyaun Space Center, China (TSC)
aabbcc
Your satellite tracking list
Your tracking list is empty




NASA's NSSDC Master Catalog

Two Line Element Set (TLE):
1 43655U 18081A   19115.28400039 -.00000042  00000-0  22031-5 0  9994
2 43655  99.3504 123.3004 0000996  32.7590 327.3626 13.79298102 25130
Source of the keplerian elements: AFSPC